This demonstration page uses our WeatherBlox Daily Observations layout. Learn more.

Left ArrowRight Arrow

Hourly Observations for December 5, 2016

Temp ( °F °C ) Dew Point ( °F °C ) Humidity (%) Winds ( mph kmh ) Pressure ( in mb ) Visibility ( mi km ) Precip ( " mm )
12:15 am 00:15 Cloudy with Drizzle 39 4 39 4 100 100 undefined N/A 30.09 1019 4 6 0.01 0.25
12:35 am 00:35 Cloudy with Rain 37 3 37 3 100 100 undefined N/A 30.06 1018 2 3 0.05 1.27
12:55 am 00:55 Cloudy with Rain 39 4 39 4 100 100 undefined N/A 30.06 1018 3 4 0.09 2.29
1:15 am 01:15 Cloudy with Rain 39 4 39 4 100 100 undefined N/A 30.06 1018 3 4 0.03 0.76
1:35 am 01:35 Cloudy with Rain 39 4 39 4 100 100 undefined N/A 30.06 1018 4 6 0.04 1.02
1:55 am 01:55 Cloudy with Light Rain 39 4 39 4 100 100 undefined N/A 30.06 1018 3 4 0.07 1.78
2:15 am 02:15 Cloudy with Light Rain 39 4 39 4 100 100 undefined N/A 30.06 1018 4 6 0.02 0.51
2:35 am 02:35 Cloudy with Light Rain 39 4 39 4 100 100 undefined N/A 30.06 1018 4 6 0.03 0.76
2:55 am 02:55 Cloudy with Light Rain 39 4 39 4 100 100 undefined N/A 30.03 1017 7 11 0.03 0.76
3:15 am 03:15 Cloudy 39 4 39 4 100 100 undefined N/A 30.03 1017 10 16 N/A
3:35 am 03:35 Cloudy 39 4 39 4 100 100 undefined N/A 30.03 1017 10 16 N/A
3:55 am 03:55 Cloudy 41 5 41 5 100 100 undefined N/A 30.03 1017 10 16 N/A
4:15 am 04:15 Cloudy 41 5 41 5 100 100 undefined N/A 30.03 1017 10 16 N/A
4:35 am 04:35 Cloudy 41 5 41 5 100 100 undefined N/A 30.03 1017 10 16 N/A
4:55 am 04:55 Cloudy 41 5 41 5 100 100 undefined N/A 30.03 1017 10 16 N/A
5:15 am 05:15 Cloudy 41 5 41 5 100 100 undefined N/A 30.00 1016 10 16 N/A
5:35 am 05:35 Cloudy 41 5 41 5 100 100 undefined N/A 30.03 1017 10 16 N/A
5:55 am 05:55 Cloudy 41 5 41 5 100 100 undefined N/A 30.03 1017 10 16 N/A
6:15 am 06:15 Cloudy 41 5 41 5 100 100 undefined N/A 30.03 1017 10 16 N/A
6:35 am 06:35 Cloudy 41 5 41 5 100 100 undefined N/A 30.03 1017 10 16 N/A
6:55 am 06:55 Cloudy 41 5 41 5 100 100 undefined N/A 30.03 1017 10 16 N/A
7:15 am 07:15 Cloudy 41 5 41 5 100 100 undefined N/A 30.03 1017 10 16 N/A
7:35 am 07:35 Cloudy 41 5 41 5 100 100 undefined N/A 30.03 1017 10 16 N/A
7:55 am 07:55 Cloudy 41 5 41 5 100 100 undefined N/A 30.03 1017 10 16 N/A
8:15 am 08:15 Cloudy 41 5 41 5 100 100 undefined N/A 30.03 1017 10 16 N/A
8:35 am 08:35 Cloudy 41 5 41 5 100 100 undefined N/A 30.03 1017 10 16 N/A
8:55 am 08:55 Cloudy 41 5 41 5 100 100 undefined N/A 30.06 1018 10 16 N/A
9:15 am 09:15 Cloudy 41 5 41 5 100 100 undefined N/A 30.06 1018 10 16 N/A
9:35 am 09:35 Cloudy 43 6 43 6 100 100 undefined N/A 30.06 1018 10 16 N/A
9:55 am 09:55 Cloudy 43 6 43 6 100 100 undefined N/A 30.06 1018 10 16 N/A
10:15 am 10:15 Cloudy 43 6 43 6 100 100 undefined N/A 30.09 1019 10 16 N/A
10:35 am 10:35 Cloudy 45 7 45 7 100 100 undefined N/A 30.06 1018 10 16 0.01 0.25
10:55 am 10:55 Partly Cloudy 45 7 45 7 100 100 undefined N/A 30.06 1018 10 16 0.01 0.25
11:15 am 11:15 Sunny 48 9 45 7 87 87 undefined N/A 30.06 1018 10 16 N/A
11:35 am 11:35 Sunny 50 10 45 7 82 82 N N/A 30.03 1017 10 16 N/A
11:55 am 11:55 Partly Cloudy 52 11 45 7 77 77 N N/A 30.03 1017 10 16 N/A
12:15 pm 12:15 Partly Cloudy 54 12 43 6 67 67 WNW 12 19 30.03 1017 10 16 N/A
12:35 pm 12:35 Partly Cloudy 54 12 41 5 63 63 NW 13 20 30.00 1016 10 16 N/A
12:55 pm 12:55 Partly Cloudy 54 12 41 5 63 63 NW 10 17 30.03 1017 10 16 N/A
1:15 pm 13:15 Sunny 55 13 41 5 59 59 NW 7 11 30.03 1017 10 16 N/A
1:35 pm 13:35 Sunny 55 13 39 4 55 55 NNW 9 15 30.03 1017 10 16 N/A
1:55 pm 13:55 Sunny 54 12 37 3 54 54 NNW 8 13 30.03 1017 10 16 N/A
2:15 pm 14:15 Sunny 55 13 37 3 51 51 NW 8 13 30.03 1017 10 16 N/A
2:35 pm 14:35 Sunny 55 13 36 2 47 47 NNW 10 17 30.03 1017 10 16 N/A
2:55 pm 14:55 Sunny 54 12 36 2 51 51 NNW 9 15 30.03 1017 10 16 N/A
3:15 pm 15:15 Sunny 54 12 36 2 51 51 NNW 8 13 30.03 1017 10 16 N/A
3:35 pm 15:35 Sunny 54 12 36 2 51 51 N 7 11 30.03 1017 10 16 N/A
3:55 pm 15:55 Sunny 54 12 36 2 51 51 N 5 7 30.03 1017 10 16 N/A
4:15 pm 16:15 Sunny 52 11 36 2 54 54 NE 3 6 30.03 1017 10 16 N/A
4:35 pm 16:35 Sunny 52 11 36 2 54 54 N 6 9 30.06 1018 10 16 N/A
4:55 pm 16:55 Clear 52 11 36 2 54 54 N N/A 30.06 1018 10 16 N/A
5:35 pm 17:35 Clear 50 10 37 3 62 62 N 6 9 30.09 1019 10 16 N/A
5:55 pm 17:55 Clear 46 8 36 2 66 66 N 6 9 30.09 1019 10 16 N/A
6:15 pm 18:15 Clear 46 8 36 2 66 66 N 7 11 30.09 1019 10 16 N/A
6:35 pm 18:35 Clear 48 9 36 2 62 62 NNE 5 7 30.12 1020 10 16 N/A
6:55 pm 18:55 Clear 48 9 36 2 62 62 N 3 6 30.12 1020 10 16 N/A
7:15 pm 19:15 Clear 46 8 36 2 66 66 N 6 9 30.12 1020 10 16 N/A
7:35 pm 19:35 Clear 46 8 34 1 62 62 undefined N/A 30.12 1020 10 16 N/A
7:55 pm 19:55 Clear 46 8 34 1 62 62 NNE 3 6 30.15 1021 10 16 N/A
8:15 pm 20:15 Clear 46 8 34 1 62 62 undefined N/A 30.15 1021 10 16 N/A
8:35 pm 20:35 Clear 45 7 34 1 66 66 undefined N/A 30.15 1021 10 16 N/A
8:55 pm 20:55 Clear 45 7 34 1 66 66 undefined N/A 30.12 1020 10 16 N/A
9:15 pm 21:15 Clear 45 7 34 1 66 66 undefined N/A 30.15 1021 10 16 N/A
9:35 pm 21:35 Clear 43 6 34 1 71 71 undefined N/A 30.15 1021 10 16 N/A
9:55 pm 21:55 Clear 41 5 36 2 81 81 undefined N/A 30.15 1021 10 16 N/A
10:15 pm 22:15 Clear 41 5 36 2 81 81 undefined N/A 30.15 1021 10 16 N/A
10:35 pm 22:35 Clear 41 5 36 2 81 81 undefined N/A 30.15 1021 10 16 N/A
10:55 pm 22:55 Clear 43 6 34 1 71 71 undefined N/A 30.15 1021 10 16 N/A
11:15 pm 23:15 Clear 43 6 34 1 71 71 undefined N/A 30.18 1022 10 16 N/A
11:35 pm 23:35 Clear 41 5 36 2 81 81 undefined N/A 30.18 1022 10 16 N/A
11:55 pm 23:55 Clear 41 5 36 2 81 81 undefined N/A 30.18 1022 10 16 N/A

Powered by AerisWeather